Regional Weather Roundup
Issued by NWS

Home | Current Version | Previous Version | Graphics & Text | Print | Product List | Glossary On
Versions: 1 2 3 4 5 6 7 8 9 10 11 12 13 14 15 16 17 18 19 20 21 22 23 24 25 26 27 28 29 30 31 32 33 34 35 36 37 38 39 40 41 42 43 44 45 46 47 48 49 50
000
ASUS43 KFSD 020902
RWRSD

WEATHER ROUNDUP FOR SOUTH DAKOTA
NATIONAL WEATHER SERVICE SIOUX FALLS SD
400 AM CDT THU JUL 02 2015

NOTE: "FAIR" INDICATES FEW OR NO CLOUDS BELOW 12,000 FEET WITH NO
SIGNIFICANT WEATHER AND/OR OBSTRUCTIONS TO VISIBILITY.


SDZ001>005-009-010-012>017-021000-
NORTHWEST AND NORTH CENTRAL SOUTH DAKOTA

CITY           SKY/WX    TMP DP  RH WIND       PRES   REMARKS
BUFFALO          N/A     58  57  97 W7        29.99R
FAITH            N/A     63  60  90 W3        29.98F
MOBRIDGE       CLOUDY    70  66  87 E6        29.92S
$$

SDZ012>016-024>037-041>051-057-063-072>074-021000-
SOUTHWEST AND SOUTH CENTRAL SOUTH DAKOTA

CITY           SKY/WX    TMP DP  RH WIND       PRES   REMARKS
RAPID CTY ARPT MOCLDY    64  60  87 W5        30.02F
PIERRE         MOCLDY    67  65  93 E8        29.92S
CUSTER         CLOUDY    56  54  93 W7        30.17F
ELLSWORTH AFB  CLOUDY    64  62  94 S2        30.01F
PHILIP         CLOUDY    66  65  96 W7        29.95F
PINE RIDGE     CLOUDY    63  59  87 SW8       30.04F
WINNER         PTSUNNY   69  63  81 S3        29.95F
$$

SDZ004>011-016>023-039-040-021000-
NORTHEAST SOUTH DAKOTA

CITY           SKY/WX    TMP DP  RH WIND       PRES   REMARKS
ABERDEEN       MOCLDY    63  58  83 S6        29.96S
WATERTOWN      PTCLDY    58  53  84 SE7       29.99R
BROOKINGS      PTCLDY    57  52  82 SE5       30.02R
SISSETON         N/A     56  54  93 S3        29.99R
$$

SDZ017-020-022-023-036>040-048>070-021000-
SOUTHEAST SOUTH DAKOTA

CITY           SKY/WX    TMP DP  RH WIND       PRES   REMARKS
SIOUX FALLS    CLOUDY    59  55  87 E6        30.00R
HURON          CLOUDY    61  58  90 SE9       29.96R
MITCHELL       CLOUDY    61  58  90 SE7       29.97S
YANKTON        MOCLDY    61  55  82 E7        29.96R
$$

ABBREVIATIONS USED IN REMARKS
   TC - TEMPERATURE IN CELSIUS
  WCI - WIND CHILL INDEX
   HX - HEAT INDEX
  VSB - VISIBILITY



USA.gov is the U.S. government's official web portal to all federal, state and local government web resources and services.